Regional Weather Roundup
Issued by NWS

Home | Current Version | Previous Version | Text Only | Print | Product List | Glossary On
Versions: 1 2 3 4 5 6 7 8 9 10 11 12 13 14 15 16 17 18 19 20 21 22 23 24 25 26 27 28 29 30 31 32 33 34 35 36 37 38 39 40 41 42 43 44 45 46 47 48 49 50
000
ASUS43 KTOP 312108
RWRKS

WEATHER ROUNDUP FOR KANSAS
NATIONAL WEATHER SERVICE GOODLAND KS
400 PM CDT WED AUG 31 2016

NOTE:  "FAIR" INDICATES FEW OR NO CLOUDS BELOW 12,000 FEET WITH NO
SIGNIFICANT WEATHER AND/OR OBSTRUCTIONS TO VISIBILITY.

KSZ001>006-013>018-027>032-041>047-312200-
NORTHWEST KANSAS

CITY           SKY/WX    TMP DP  RH WIND       PRES   REMARKS
GOODLAND       LGT RAIN  68  63  84 CALM      30.21F
HAYS           MOSUNNY   75  63  64 E14       30.15F
HILL CITY      PTSUNNY   76  68  76 E8        30.17F
RUSSELL        CLOUDY    74  67  78 E14       30.14F
$$

KSZ061>065-074>080-084>089-312200-
SOUTHWEST KANSAS

CITY           SKY/WX    TMP DP  RH WIND       PRES   REMARKS
DODGE CITY     CLOUDY    78  66  66 VRB5      30.15F
ELKHART          N/A     79  62  56 E6          N/A
GARDEN CITY    CLOUDY    76  65  68 E7        30.16F
GREAT BEND     CLOUDY    79  64  61 NE20G25   30.13F
LIBERAL        CLOUDY    81  64  57 NE18      30.17F
PRATT          MOSUNNY   77  64  63 N9        30.12F
$$

KSZ066>073-081>083-090>101-312200-
SOUTHEAST KANSAS

CITY           SKY/WX    TMP DP  RH WIND       PRES   REMARKS
CHANUTE        CLOUDY    80  70  71 NE8       30.06F
COFFEYVILLE    RAIN      76  74  93 NW7       30.04F FOG
HUTCHINSON     MOSUNNY   82  68  62 NE7       30.11S
MEDICINE LODGE   N/A     82  67  60 N7        30.08F
NEWTON         CLOUDY    76  70  82 NE9       30.12S
PARSONS        LGT RAIN  80  74  81 N3        30.06F
WICHITA INTL   PTSUNNY   83  68  60 N9        30.09S
WICHITA JABRA  CLOUDY    79  70  74 NE8       30.09F
WICHITA MCCONL MOSUNNY   82  69  65 NE9       30.09S
WINFIELD       CLOUDY    82  73  74 NE10      30.07F
$$

KSZ007>012-019>026-033>040-048>060-102>105-312200-
NORTHEAST KANSAS

CITY           SKY/WX    TMP DP  RH WIND       PRES   REMARKS
CONCORDIA      CLOUDY    75  69  81 NE7       30.14F
EMPORIA        CLOUDY    77  70  79 N7        30.10S
LAWRENCE       CLOUDY    81  70  69 N7        30.09S
MANHATTAN      CLOUDY    78  70  76 NE6       30.11F
MARYSVILLE     CLOUDY    77  64  65 NE9       30.13F
OLATHE IND     CLOUDY    78  70  76 N8        30.10S
OLATHE EXE     CLOUDY    78  69  73 NE10      30.09S
SALINA         LGT RAIN  70  66  87 NE9       30.13F FOG
TOPEKA BILLARD MOSUNNY   81  70  69 VRB3      30.10S
TOPEKA FORBES  PTSUNNY   81  69  67 NE9       30.10F
$$



USA.gov is the U.S. government's official web portal to all federal, state and local government web resources and services.